Wind_Speed
12 9 10 11 8 8 17 17 8 3 4 5 6 5 7 3 1 3 7 9 14 14 14 16 17 18 16 15 14 13 13 17 18 18 18 19 19 18 19 19 19 18 17 15 16 14 15 15 17
13 12 12 9 9 14 14 17 7 10 7 3 5 3 6 6 5 9 10 11 15 14 13 14 17 17 17 16 14 13 13 15 18 20 19 21 20 20 20 20 19 17 14 14 16 15 15 16 18
17 14 9 7 16 17 16 5 6 4 7 8 7 9 8 4 5 8 13 17 15 13 12 14 16 18 18 16 14 13 14 15 17 20 20 22 22 21 19 22 19 15 13 12 12 13 15 18 20
15 11 9 13 21 20 22 11 6 5 8 10 10 8 3 2 7 8 16 17 15 12 12 13 15 18 18 16 15 13 14 15 17 19 20 22 22 19 21 21 20 17 15 14 13 10 12 18 20
20 10 13 18 24 25 11 7 7 8 3 6 11 10 4 6 5 12 18 16 15 13 12 12 15 18 19 17 16 15 14 15 16 18 19 22 21 21 20 23 23 22 18 16 16 14 15 18 20
9 12 16 18 24 22 21 10 10 12 9 7 8 13 5 10 10 11 17 17 14 14 13 11 17 18 18 17 16 15 15 15 17 19 19 19 21 23 24 22 22 24 22 20 17 15 16 18 20
18 15 21 24 22 19 18 11 15 15 16 16 10 11 11 11 11 14 15 16 14 14 13 13 15 16 18 17 17 17 16 16 16 18 18 19 24 25 26 25 22 20 21 20 22 19 20 21 23
15 15 27 23 20 23 13 11 13 17 18 2 4 9 11 10 7 9 15 17 15 15 14 14 15 15 14 14 18 18 17 17 16 16 19 21 23 25 27 23 22 21 16 21 19 19 18 20 17
20 18 22 27 24 20 7 8 12 14 18 9 10 15 10 3 6 12 16 17 17 16 15 15 15 15 15 15 15 18 18 17 17 18 19 21 21 24 23 23 21 23 17 21 19 19 19 16 15
21 18 31 21 20 15 12 10 12 11 14 11 11 4 5 3 6 15 17 18 20 18 17 16 16 16 15 15 14 14 15 15 16 17 18 19 19 19 21 22 19 20 20 21 19 17 22 23 22
25 29 23 22 23 11 13 15 13 16 17 16 20 14 16 9 10 11 19 20 21 20 19 19 18 17 16 15 14 14 16 17 17 18 19 21 21 20 22 20 19 19 23 20 16 21 25 23 24
30 30 26 27 23 13 20 20 23 20 19 18 17 13 11 14 12 12 15 21 23 23 22 21 19 19 17 15 15 15 14 15 16 15 18 19 18 19 19 19 18 20 21 21 19 22 26 21 24
31 27 26 24 23 21 20 24 21 22 17 16 19 21 17 17 17 19 19 21 22 24 23 23 21 20 19 17 13 14 14 15 17 14 16 17 17 17 17 16 15 18 19 18 19 24 26 25 29
26 28 26 24 21 20 24 25 22 23 20 21 23 23 21 22 21 22 22 22 23 24 24 23 23 22 20 19 15 14 13 14 15 15 16 18 19 17 17 16 17 19 20 20 19 24 27 27 31
27 23 21 21 27 24 22 29 30 23 22 22 22 23 22 22 23 22 25 23 23 23 23 24 23 24 23 21 18 16 14 13 15 20 15 17 18 18 17 19 22 21 18 16 20 22 28 29 30
17 25 24 24 21 20 18 29 21 21 24 28 24 24 22 24 23 28 28 25 25 23 22 24 24 25 25 22 20 18 16 15 12 15 16 18 18 18 18 18 19 18 19 19 22 26 32 30 27
24 21 27 26 25 23 27 28 23 27 21 15 14 17 18 17 20 24 27 29 27 24 22 24 25 25 26 24 21 19 17 17 15 16 16 17 19 20 19 17 16 17 16 20 25 30 34 30 29
23 24 22 23 19 21 21 25 22 19 11 14 15 16 16 16 15 18 23 26 26 23 21 24 26 26 26 24 22 20 17 15 16 16 16 17 18 21 19 16 15 15 18 20 27 27 30 32 30
22 20 21 16 20 19 22 20 20 19 20 19 19 17 17 17 16 21 23 24 23 19 20 23 27 28 27 27 27 25 21 19 18 15 16 17 17 18 21 16 17 17 19 23 29 28 31 23 31
22 19 17 15 17 8 15 21 21 21 21 21 20 20 21 21 21 20 23 24 25 23 21 25 27 28 30 27 27 24 19 19 18 17 18 17 17 18 17 16 15 17 18 21 27 24 23 16 28
19 19 19 17 12 14 14 22 23 29 25 22 21 19 19 18 18 18 19 25 27 25 24 24 27 30 30 27 25 21 19 14 19 18 18 20 19 19 17 18 16 17 19 24 26 28 22 22 21
19 20 21 18 14 14 13 13 14 8 9 8 4 3 7 9 10 13 16 20 26 28 26 27 27 29 31 29 28 29 26 21 20 20 18 20 19 19 18 19 22 19 21 24 26 28 25 24 21
17 18 19 16 16 15 20 9 17 5 11 12 4 3 5 7 9 11 14 21 26 29 28 27 28 30 31 32 31 30 25 22 18 20 18 20 20 18 18 22 21 22 24 25 26 27 24 27 26
21 11 11 13 12 14 18 16 11 13 5 5 4 2 4 5 9 12 13 16 23 27 31 28 28 30 33 33 35 31 28 24 22 21 18 19 19 20 19 22 27 29 28 26 29 28 28 26 25
17 16 8 9 10 11 10 13 10 13 8 3 1 3 7 9 12 14 18 17 17 23 28 26 30 32 33 34 35 32 29 25 22 21 20 19 19 19 20 20 22 29 33 31 31 32 31 32 28
19 17 7 11 13 13 11 8 3 15 6 3 2 5 5 11 13 15 18 20 17 20 26 30 29 30 33 33 34 32 29 25 22 21 19 18 19 19 18 20 21 23 31 28 31 32 36 31 31
17 15 18 6 9 4 9 9 9 8 8 3 10 11 12 14 16 17 18 19 27 19 23 23 24 28 30 29 30 29 27 25 22 21 17 17 15 18 19 18 21 25 26 29 31 31 31 34 32
14 14 6 6 4 6 9 9 11 3 8 6 8 12 14 16 16 16 17 20 29 28 14 16 22 24 22 23 26 24 26 25 21 20 19 16 15 16 17 16 16 18 24 27 27 26 28 29 30
6 10 5 5 3 4 2 6 11 9 9 10 11 13 14 15 15 14 16 25 31 36 7 13 16 18 23 24 23 23 24 23 21 19 19 17 18 16 15 16 13 22 23 23 24 23 24 27 26
14 11 10 5 5 1 4 4 6 8 9 12 14 12 13 13 14 14 16 23 29 34 9 8 10 14 21 23 24 25 21 23 22 20 19 18 20 17 15 15 15 15 17 21 23 23 24 24 25
Wind_Direction
207 217 232 242 243 230 255 239 245 230 214 229 295 223 261 335 304 16 115 104 124 138 152 160 169 170 172 172 181 190 195 199 200 195 193 189 184 179 174 174 167 170 171 167 165 168 161 158 154
209 218 230 263 245 246 238 231 194 240 101 107 231 219 246 245 71 103 131 134 139 141 151 161 168 170 171 176 180 185 191 196 195 194 192 189 188 181 178 172 170 176 169 174 167 163 160 163 159
215 216 253 229 235 246 255 154 204 160 132 191 200 218 220 263 103 136 123 148 151 148 155 174 170 173 177 180 183 185 189 190 194 193 191 192 189 185 177 178 174 174 170 166 164 168 167 169 165
202 213 249 253 247 233 252 300 260 169 202 214 229 193 159 28 140 154 149 154 155 155 157 192 178 176 181 183 183 184 189 191 191 192 190 193 192 186 181 177 176 175 168 169 169 173 174 175 174
227 246 235 235 242 256 240 263 306 227 186 214 218 213 199 166 142 142 159 161 161 161 161 187 181 180 184 187 185 187 189 192 190 187 191 193 189 188 186 183 179 174 179 176 172 182 186 186 183
223 233 241 240 242 241 247 189 213 249 245 202 228 244 209 148 170 165 169 168 167 167 169 173 181 182 186 189 190 193 193 195 187 189 197 197 192 191 188 190 186 180 185 182 182 183 192 186 192
239 230 243 251 257 250 228 212 246 236 243 231 215 227 237 164 190 167 179 173 172 175 173 171 176 183 186 191 195 199 199 200 200 198 200 197 200 199 192 194 197 190 187 187 189 186 203 197 192
235 249 258 249 255 259 247 193 241 247 244 109 216 236 225 72 147 178 184 186 182 182 180 179 179 183 185 191 198 203 206 206 206 204 200 200 205 206 201 207 203 200 204 203 198 191 195 207 201
223 244 245 244 248 252 252 268 222 248 244 211 198 256 55 77 196 197 183 192 190 190 190 186 186 187 187 193 204 200 207 211 211 207 209 205 201 208 212 205 205 220 219 204 194 185 184 199 202
223 232 242 251 254 259 265 228 243 213 227 201 219 167 216 187 187 205 193 202 200 196 198 195 195 195 190 192 199 202 207 211 212 210 210 205 205 208 207 212 226 215 216 204 198 192 191 196 200
219 240 251 247 254 277 256 244 234 246 242 227 211 212 195 195 209 210 217 211 208 205 205 204 198 197 192 194 196 200 209 212 210 213 211 208 207 206 208 211 212 213 212 201 202 199 201 205 213
232 239 243 260 267 218 251 257 255 248 243 263 271 242 222 233 231 218 226 219 216 207 210 208 202 200 200 200 195 203 206 209 210 213 213 212 210 209 209 208 210 206 203 200 195 190 203 208 208
235 241 248 257 255 259 247 254 256 256 263 255 261 269 255 250 241 236 228 226 223 215 209 209 208 201 201 204 197 202 210 215 212 215 212 210 202 205 202 209 207 204 195 200 198 207 215 221 212
242 240 250 247 252 245 253 256 252 247 250 250 245 251 242 238 239 239 228 227 226 224 208 206 208 203 200 203 200 202 213 210 213 211 214 213 215 211 207 204 206 205 207 219 212 217 224 219 204
256 256 246 245 241 241 243 258 250 253 253 246 238 245 241 240 239 231 233 228 227 228 214 197 203 202 202 201 202 204 208 206 206 215 213 206 212 217 207 207 209 208 216 227 217 214 210 205 211
240 241 248 233 236 234 233 255 251 242 236 231 237 240 243 238 233 235 234 234 233 222 216 196 200 202 203 200 202 204 208 203 205 211 209 210 212 217 219 216 218 222 229 225 212 207 200 208 196
230 237 231 243 237 227 221 252 251 248 243 226 229 234 227 227 231 233 233 231 231 230 219 201 199 201 202 202 202 203 207 205 208 209 208 211 212 218 224 219 222 222 219 214 213 205 202 196 195
218 222 241 250 211 222 239 242 246 269 219 250 251 241 241 239 228 230 229 230 228 229 222 207 196 200 201 200 201 203 202 200 207 207 211 213 216 221 221 219 218 217 219 224 205 208 188 185 189
251 249 237 227 242 231 225 239 250 246 250 222 230 250 255 246 245 230 225 228 221 228 214 208 198 197 194 195 198 199 195 194 202 201 209 212 217 222 221 217 214 221 221 217 201 185 172 172 185
240 250 257 270 266 226 254 258 264 258 253 249 247 238 242 246 241 244 241 228 220 222 216 208 204 198 197 201 204 203 188 196 204 203 212 212 215 222 222 202 197 203 200 197 190 168 164 163 166
222 233 247 260 260 251 255 265 259 245 243 246 249 254 261 264 267 264 244 237 242 226 219 216 208 202 198 202 201 194 192 192 199 202 208 209 213 223 213 195 188 193 195 182 181 184 175 160 150
221 225 247 259 256 251 235 266 181 181 210 198 203 258 288 291 281 270 266 261 249 240 225 216 214 207 201 198 198 197 190 194 199 199 205 209 211 215 211 193 193 186 197 188 183 183 179 169 153
229 233 239 240 252 257 259 243 266 169 180 139 136 2 302 299 288 275 272 273 256 250 234 209 215 210 202 197 203 199 198 199 191 193 199 208 209 211 204 204 195 192 200 194 185 190 194 178 170
226 218 223 239 243 243 242 238 228 175 139 112 82 308 332 330 324 303 281 265 264 247 241 214 207 210 204 198 203 198 196 195 188 187 188 200 205 208 208 204 206 203 205 199 203 198 197 190 195
202 199 184 203 210 238 218 209 232 106 112 97 311 335 5 1 0 336 321 301 260 243 236 232 201 212 204 197 198 197 197 195 189 183 190 191 196 204 205 202 197 210 207 208 214 206 200 196 197
195 192 210 214 210 218 140 223 183 99 137 222 257 42 350 9 3 347 329 317 288 254 242 226 205 214 204 197 197 194 195 189 189 183 190 197 186 207 205 208 207 198 197 204 212 204 210 203 203
208 215 237 263 232 270 186 139 125 155 82 9 307 357 22 14 4 349 338 331 321 278 239 211 208 213 202 191 192 189 189 189 189 180 189 191 193 187 198 201 208 205 200 203 203 206 209 204 203
218 192 186 228 236 226 210 201 114 78 65 10 349 7 17 1 2 352 347 337 327 304 211 199 210 210 173 171 189 184 181 191 184 177 184 181 185 188 191 187 195 195 189 200 205 206 208 208 211
174 173 222 242 302 283 212 111 87 54 20 356 356 27 14 360 2 2 356 348 340 337 200 185 199 179 162 164 181 174 189 182 180 177 179 170 178 182 180 177 173 196 195 194 196 193 198 204 208
190 196 207 234 182 253 321 57 75 45 18 7 40 27 14 11 8 13 10 2 353 344 80 121 192 149 166 164 170 182 197 180 180 177 174 173 174 178 175 171 168 186 196 205 210 215 217 211 208
Height
777 777 775 769 776 754 745 726 706 720 723 711 710 713 717 710 723 745 729 733 737 742 746 747 750 753 757 760 763 765 767 770 773 777 780 783 785 788 791 793 795 797 799 801 803 805 808 809 810
777 775 772 759 770 755 733 708 719 714 712 715 717 721 724 726 715 723 729 735 739 743 746 749 750 754 757 760 763 765 768 770 773 776 779 784 786 789 792 795 797 799 801 803 805 807 809 811 812
772 772 765 758 756 749 727 701 708 705 712 719 722 715 716 721 717 721 728 735 739 743 747 750 751 754 758 761 763 766 768 771 774 777 779 782 786 790 793 796 798 802 804 806 808 809 809 812 813
770 768 762 759 747 725 717 704 710 713 716 715 714 722 715 717 722 724 731 736 740 744 748 749 752 755 759 762 765 767 770 772 774 778 780 783 785 792 792 795 798 800 803 806 808 811 814 814 815
765 754 759 749 744 725 707 712 713 719 715 716 715 721 721 719 723 725 732 736 740 745 749 750 752 755 759 763 765 768 770 773 775 778 781 783 787 790 792 794 795 797 803 805 806 809 811 814 817
763 753 756 744 733 717 706 706 718 724 715 718 721 720 717 715 724 728 732 737 741 745 749 751 752 755 760 763 766 769 771 773 776 778 781 784 786 788 791 795 797 797 799 802 805 807 810 812 815
758 750 747 735 724 713 704 709 719 721 719 716 712 723 713 714 722 727 733 737 741 745 749 752 754 756 759 762 765 768 770 774 775 778 780 784 786 788 789 794 797 798 798 802 803 804 811 811 813
751 748 743 728 729 720 699 707 716 716 717 710 714 724 720 716 722 728 733 737 741 745 748 751 754 756 758 761 764 767 770 772 775 778 780 782 785 787 790 793 796 797 799 802 803 807 812 815 816
744 752 738 729 726 716 701 717 711 708 710 714 713 713 715 722 724 728 731 736 740 743 747 749 752 755 757 760 763 765 768 771 774 776 780 781 784 787 789 791 794 797 798 802 804 808 811 816 819
739 740 727 713 707 707 712 719 709 717 717 715 720 716 721 722 723 724 726 731 736 740 744 747 750 754 756 759 762 765 768 770 772 775 777 781 782 785 788 790 792 795 798 801 805 806 809 814 817
731 724 717 710 706 706 712 714 709 714 718 706 714 710 713 716 717 720 720 724 729 734 740 743 747 751 755 757 760 763 765 768 769 772 775 777 779 782 784 788 790 794 797 801 804 806 808 811 814
729 717 718 715 702 712 720 714 712 707 710 705 703 702 708 712 713 715 716 716 722 727 733 739 743 747 751 754 757 760 762 765 767 769 771 774 776 779 781 785 788 790 793 798 801 803 806 808 812
714 714 712 708 707 706 713 713 712 708 706 707 709 707 707 709 709 709 710 712 714 719 726 733 739 743 748 751 753 757 760 762 764 766 769 771 773 776 778 782 785 787 790 794 797 800 803 804 809
710 709 708 708 705 713 716 711 710 706 705 707 708 705 703 703 704 703 703 706 708 713 719 728 735 740 744 748 751 753 757 759 761 763 766 768 771 773 776 779 783 785 787 790 794 796 798 801 806
710 716 705 704 706 707 711 708 704 701 700 700 701 699 697 697 696 696 697 699 703 707 713 722 731 735 739 743 747 750 753 755 757 760 763 765 768 771 773 775 778 782 785 787 790 792 794 799 791
716 715 715 699 702 702 713 702 691 682 687 687 690 691 690 689 690 691 693 695 697 701 707 715 724 730 734 738 742 745 749 752 755 758 760 763 765 768 771 772 775 779 782 784 787 790 793 795 797
710 710 706 703 686 690 696 699 688 682 678 682 684 682 681 683 683 686 688 690 692 695 701 708 717 724 730 734 738 742 745 748 751 755 757 760 762 766 768 769 772 776 778 780 783 787 789 793 796
698 703 693 687 677 678 690 690 684 677 678 680 680 677 677 678 679 681 683 684 687 690 695 702 710 719 725 730 735 738 741 745 749 751 754 757 759 762 765 766 769 772 774 777 780 783 784 787 794
689 684 681 676 671 677 682 684 677 670 669 673 677 678 677 677 674 675 678 680 682 687 692 698 704 712 720 724 727 730 735 740 745 747 752 754 756 759 761 764 765 767 769 772 775 778 780 786 793
695 696 692 682 673 684 688 686 677 672 668 666 668 671 672 671 670 670 672 675 679 684 689 694 698 706 712 719 721 724 730 737 741 744 748 750 752 756 758 760 762 764 767 771 774 775 778 783 789
700 704 702 694 681 678 689 687 675 662 660 661 660 661 663 664 665 665 667 671 674 676 683 688 693 699 705 712 717 721 727 734 737 739 744 746 749 752 755 758 760 762 765 769 773 776 779 782 788
705 698 700 697 697 701 674 687 654 654 655 655 658 662 664 665 664 665 667 667 668 671 675 681 686 691 698 706 709 713 715 724 728 732 738 743 744 749 752 754 757 759 765 768 773 776 779 779 783
699 694 697 698 700 697 684 690 665 654 662 662 664 671 672 671 671 670 671 669 666 666 667 672 678 684 690 696 701 706 711 718 723 727 733 739 741 744 747 751 755 757 762 767 770 776 778 780 783
694 696 700 700 698 703 681 675 657 652 656 661 667 669 669 668 668 667 666 665 662 661 662 663 671 677 682 689 695 700 706 711 716 720 728 735 736 740 744 746 750 754 758 763 767 772 776 780 784
691 697 711 715 704 696 655 667 654 652 661 668 671 667 666 667 670 671 669 659 655 655 655 657 663 669 675 682 688 694 702 706 712 716 722 726 732 736 738 742 746 750 753 759 763 768 773 777 781
689 691 693 705 690 674 662 675 653 647 663 664 661 668 668 670 675 677 674 663 651 648 648 650 655 664 669 676 683 690 697 702 709 712 717 720 726 732 734 738 742 745 750 754 760 763 769 772 776
699 697 680 699 680 677 661 651 656 659 667 671 669 664 666 673 681 684 680 672 657 644 642 644 653 660 664 672 681 686 693 699 704 707 713 716 722 727 731 734 738 741 746 751 755 759 764 767 770
682 677 698 692 691 686 651 648 673 682 673 671 670 665 673 677 685 691 687 679 665 644 638 647 655 658 664 674 681 684 690 696 701 705 710 713 720 725 728 730 734 739 742 748 752 755 760 764 768
687 689 690 683 683 679 661 668 667 672 673 674 670 680 682 686 690 697 695 685 672 654 643 649 656 658 667 674 681 684 690 694 699 704 708 712 718 722 726 727 731 736 741 745 748 752 756 760 764
670 676 681 687 691 683 683 680 665 668 669 670 680 690 691 695 698 700 700 692 682 671 654 659 663 664 669 674 680 684 689 692 697 702 706 711 716 720 724 726 728 734 739 742 745 748 752 756 759